Regional Weather Roundup
Issued by NWS Little Rock, AR

Home | Current Version | Previous Version | Graphics & Text | Print | Product List | Glossary On
Versions: 1 2 3 4 5 6 7 8 9 10 11 12 13 14 15 16 17 18 19 20 21 22 23 24 25 26 27 28 29 30 31 32 33 34 35 36 37 38 39 40 41 42 43 44 45 46 47 48 49 50
000
ASUS44 KLZK 151405
RWRLZK

WEATHER ROUNDUP FOR ARKANSAS
NATIONAL WEATHER SERVICE LITTLE ROCK AR
900 AM CDT MON SEP 15 2014

NOTE: "FAIR" INDICATES FEW OR NO CLOUDS BELOW 12,000 FEET WITH NO
SIGNIFICANT WEATHER AND/OR OBSTRUCTIONS TO VISIBILITY.

ARZ001-003-010-029-151500-
NORTHWEST ARKANSAS

CITY           SKY/WX    TMP DP  RH WIND       PRES   REMARKS
FAYETTEVILLE   CLOUDY    65  64  97 S7        30.17F
FORT SMITH     CLOUDY    66  63  90 E5        30.18S
HARRISON       LGT RAIN  63  63 100 SE5       30.18F
BENTONVILLE    CLOUDY    66  63  88 SW5       30.18S
ROGERS         CLOUDY    66  63  90 S7        30.18S
SILOAM SPGS    CLOUDY    64  61  88 CALM      30.18S
HIGHFILL       LGT RAIN  64  63  96 S6        30.17S
SPRINGDALE     CLOUDY    64  63  94 S8        30.19F
$$

ARZ004-005-016-151500-
NORTH CENTRAL ARKANSAS

CITY           SKY/WX    TMP DP  RH WIND       PRES   REMARKS
BATESVILLE     CLOUDY    61  57  88 CALM      30.20S
FLIPPIN        CLOUDY    61  57  88 S3        30.18F
MTN HOME       CLOUDY    61  60  97 S5        30.18F
$$

ARZ040-041-151500-
WEST CENTRAL ARKANSAS

CITY           SKY/WX    TMP DP  RH WIND       PRES   REMARKS
MENA             N/A     68  64  88 CALM        N/A
MOUNT IDA      CLOUDY    66  63  90 CALM      30.18R
$$

ARZ009-017-025-026-028-151500-
NORTHEAST ARKANSAS

CITY           SKY/WX    TMP DP  RH WIND       PRES   REMARKS
CORNING          N/A     61  59  94 NW3       30.20R
JONESBORO      CLOUDY    64  60  87 CALM      30.19S
NEWPORT        LGT RAIN  64  61  90 N3        30.21R
WALNUT RIDGE   CLOUDY    59  57  94 W3        30.19R
BLYTHEVILLE    CLOUDY    64  61  90 CALM      30.19S
NW BLYTHEVILLE CLOUDY    64  59  82 CALM      30.19
$$

ARZ022-023-033-042-044-151500-
CENTRAL ARKANSAS

CITY           SKY/WX    TMP DP  RH WIND       PRES   REMARKS
LITTLE ROCK    CLOUDY    68  59  73 CALM      30.20R
N LITTLE ROCK  CLOUDY    66  61  82 CALM      30.20R
JACKSONVILLE   CLOUDY    67  60  80 CALM      30.19S
SEARCY         CLOUDY    65  59  81 N5        30.21R
HOT SPRINGS    LGT RAIN  66  62  87 CALM      30.20R
RUSSELLVILLE   CLOUDY    66  63  90 CALM      30.18F
CLINTON        LGT RAIN  63  63 100 CALM      30.21S
$$

ARZ036-151500-
EAST ARKANSAS

CITY           SKY/WX    TMP DP  RH WIND       PRES   REMARKS
WEST MEMPHIS   CLOUDY    67  62  84 NW5       30.17S
$$

ARZ050-053-066-070-073-151500-
SOUTHWEST ARKANSAS

CITY           SKY/WX    TMP DP  RH WIND       PRES   REMARKS
ARKADELPHIA    FAIR      69  62  78 NE5       30.19R
CAMDEN         PTSUNNY   68  63  83 CALM      30.18R
TEXARKANA      PTSUNNY   67  64  90 NE3       30.18R
EL DORADO      PTSUNNY   68  62  81 NE5       30.18R
DE QUEEN       CLOUDY    68  65  90 CALM      30.16S
$$

ARZ056-057-069-151500-
SOUTHEAST ARKANSAS

CITY           SKY/WX    TMP DP  RH WIND       PRES   REMARKS
PINE BLUFF     PTSUNNY   68  62  81 N5        30.18R
STUTTGART      PTSUNNY   66  61  82 N6        30.19R
MONTICELLO     CLOUDY    69  62  78 NE5       30.17R

$$




USA.gov is the U.S. government's official web portal to all federal, state and local government web resources and services.